09-08-2023, 00:00:03,    272,    0.0,   11.5,   0.00,   0.00, 1011.9,    0.2, -999.0
09-08-2023, 00:00:12,    273,    0.0,   11.5,   0.00,   0.00, 1012.0,    0.1, -999.0
09-08-2023, 00:00:22,    272,    0.0,   11.4,   0.00,   0.00, 1012.0,    0.1, -999.0
09-08-2023, 00:00:33,    273,    0.0,   11.5,   0.00,   0.00, 1012.0,    0.1, -999.0
09-08-2023, 00:00:43,    272,    0.0,   11.4,   0.00,   0.00, 1012.0,    0.1, -999.0
09-08-2023, 00:00:52,    273,    0.0,   11.5,   0.00,   0.00, 1012.0,    0.1, -999.0
09-08-2023, 00:01:02,    273,    0.0,   11.5,   0.00,   0.00, 1012.0,    0.1, -999.0
09-08-2023, 00:01:13,    273,    0.0,   11.5,   0.00,   0.00, 1012.0,    0.3, -999.0
09-08-2023, 00:01:22,    272,    0.0,   11.4,   0.00,   0.00, 1012.0,    0.0, -999.0
09-08-2023, 00:01:32,    273,    0.0,   11.5,   0.00,   0.00, 1012.0,    0.0, -999.0
09-08-2023, 00:01:42,    272,    0.0,   11.5,   0.00,   0.00, 1012.0,    0.0, -999.0
09-08-2023, 00:01:52,    273,    0.0,   11.4,   0.00,   0.00, 1011.9,    0.0, -999.0
09-08-2023, 00:02:02,    273,    0.0,   11.4,   0.00,   0.00, 1012.0,    0.3, -999.0
09-08-2023, 00:02:12,    273,    0.0,   11.4,   0.00,   0.00, 1011.9,    0.4, -999.0
09-08-2023, 00:02:22,    273,    0.0,   11.4,   0.00,   0.00, 1011.9,    0.4, -999.0
09-08-2023, 00:02:32,    273,    0.0,   11.5,   0.00,   0.00, 1011.9,    0.0, -999.0
09-08-2023, 00:02:42,    273,    0.0,   11.5,   0.00,   0.00, 1011.9,    0.1, -999.0
09-08-2023, 00:02:52,    272,    0.0,   11.3,   0.00,   0.00, 1011.9,    0.0, -999.0
09-08-2023, 00:03:02,    272,    0.0,   11.4,   0.00,   0.00, 1011.9,    0.3, -999.0
09-08-2023, 00:03:12,    272,    0.0,   11.4,   0.00,   0.00, 1011.9,    0.4, -999.0
09-08-2023, 00:03:22,    273,    0.0,   11.4,   0.00,   0.00, 1011.9,    0.4, -999.0
09-08-2023, 00:03:32,    273,    0.0,   11.5,   0.00,   0.00, 1012.0,    0.2, -999.0
09-08-2023, 00:03:42,    272,    0.0,   11.4,   0.00,   0.00, 1011.9,    0.2, -999.0
09-08-2023, 00:03:52,    273,    0.0,   11.4,   0.00,   0.00, 1011.9,    0.2, -999.0
09-08-2023, 00:04:02,    273,    0.0,   11.4,   0.00,   0.00, 1011.9,    0.2, -999.0
09-08-2023, 00:04:12,    273,    0.0,   11.4,   0.00,   0.00, 1011.9,    0.2, -999.0
09-08-2023, 00:04:22,    272,    0.0,   11.4,   0.00,   0.00, 1011.9,    0.2, -999.0
09-08-2023, 00:04:32,    273,    0.0,   11.4,   0.00,   0.00, 1011.9,    0.0, -999.0
09-08-2023, 00:04:42,    273,    0.0,   11.4,   0.00,   0.00, 1011.9,    0.1, -999.0
09-08-2023, 00:04:52,    273,    0.0,   11.4,   0.00,   0.00, 1011.9,    0.1, -999.0
09-08-2023, 00:05:02,    272,    0.0,   11.4,   0.00,   0.00, 1011.9,    0.1, -999.0
09-08-2023, 00:05:12,    273,    0.0,   11.3,   0.00,   0.00, 1011.9,    0.1, -999.0
09-08-2023, 00:05:22,    273,    0.0,   11.4,   0.00,   0.00, 1011.9,    0.3, -999.0
09-08-2023, 00:05:32,    273,    0.0,   11.3,   0.00,   0.00, 1011.9,    0.1, -999.0
09-08-2023, 00:05:42,    272,    0.0,   11.4,   0.00,   0.00, 1011.9,    0.1, -999.0
09-08-2023, 00:05:52,    273,    0.0,   11.4,   0.00,   0.00, 1011.9,    0.0, -999.0
09-08-2023, 00:06:02,    273,    0.0,   11.4,   0.00,   0.00, 1011.9,    0.1, -999.0
09-08-2023, 00:06:12,    273,    0.0,   11.5,   0.00,   0.00, 1011.9,    0.4, -999.0
09-08-2023, 00:06:22,    273,    0.0,   11.5,   0.00,   0.00, 1011.9,    0.4, -999.0
09-08-2023, 00:06:32,    272,    0.0,   11.5,   0.00,   0.00, 1011.8,    0.1, -999.0
09-08-2023, 00:06:42,    273,    0.0,   11.5,   0.00,   0.00, 1011.9,    0.0, -999.0
09-08-2023, 00:06:52,    273,    0.0,   11.4,   0.00,   0.00, 1011.9,    0.0, -999.0
09-08-2023, 00:07:02,    273,    0.0,   11.5,   0.00,   0.00, 1011.8,    0.4, -999.0
09-08-2023, 00:07:12,    273,    0.0,   11.5,   0.00,   0.00, 1011.9,    0.2, -999.0
09-08-2023, 00:07:22,    273,    0.0,   11.5,   0.00,   0.00, 1011.9,    0.0, -999.0
09-08-2023, 00:07:31,    273,    0.0,   11.5,   0.00,   0.00, 1011.9,    0.2, -999.0
09-08-2023, 00:07:42,    272,    0.0,   11.5,   0.00,   0.00, 1011.9,    0.1, -999.0
09-08-2023, 00:07:52,    273,    0.0,   11.5,   0.00,   0.00, 1011.9,    0.2, -999.0
09-08-2023, 00:08:02,    273,    0.0,   11.4,   0.00,   0.00, 1011.9,    0.1, -999.0
09-08-2023, 00:08:11,    272,    0.0,   11.5,   0.00,   0.00, 1011.8,    0.4, -999.0
09-08-2023, 00:08:22,    273,    0.0,   11.5,   0.00,   0.00, 1011.8,    0.1, -999.0
09-08-2023, 00:08:32,    273,    0.0,   11.4,   0.00,   0.00, 1011.8,    0.3, -999.0
09-08-2023, 00:08:41,    273,    0.0,   11.4,   0.00,   0.00, 1011.8,    0.2, -999.0
09-08-2023, 00:08:51,    273,    0.0,   11.5,   0.00,   0.00, 1011.8,    0.1, -999.0
09-08-2023, 00:09:02,    273,    0.0,   11.4,   0.00,   0.00, 1011.8,    0.0, -999.0
09-08-2023, 00:09:11,    273,    0.0,   11.4,   0.00,   0.00, 1011.8,    0.1, -999.0
09-08-2023, 00:09:21,    273,    0.0,   11.5,   0.00,   0.00, 1011.8,    0.1, -999.0
09-08-2023, 00:09:31,    273,    0.0,   11.4,   0.00,   0.00, 1011.8,    0.1, -999.0
09-08-2023, 00:09:42,    273,    0.0,   11.4,   0.00,   0.00, 1011.8,    0.4, -999.0
09-08-2023, 00:09:51,    273,    0.0,   11.4,   0.00,   0.00, 1011.8,    0.0, -999.0
09-08-2023, 00:10:01,    273,    0.0,   11.4,   0.00,   0.00, 1011.8,    0.0, -999.0
09-08-2023, 00:10:11,    273,    0.0,   11.4,   0.00,   0.00, 1011.8,    0.1, -999.0
09-08-2023, 00:10:21,    273,    0.0,   11.3,   0.00,   0.00, 1011.8,    0.3, -999.0
09-08-2023, 00:10:31,    273,    0.0,   11.4,   0.00,   0.00, 1011.8,    0.5, -999.0
09-08-2023, 00:10:41,    273,    0.0,   11.4,   0.00,   0.00, 1011.9,    0.0, -999.0
09-08-2023, 00:10:51,    273,    0.0,   11.4,   0.00,   0.00, 1011.8,    0.1, -999.0
09-08-2023, 00:11:01,    273,    0.0,   11.4,   0.00,   0.00, 1011.8,    0.0, -999.0
09-08-2023, 00:11:11,    274,    0.0,   11.4,   0.00,   0.00, 1011.8,    0.0, -999.0
09-08-2023, 00:11:21,    273,    0.0,   11.5,   0.00,   0.00, 1011.8,    0.3, -999.0
09-08-2023, 00:11:31,    273,    0.0,   11.5,   0.00,   0.00, 1011.8,    0.1, -999.0
09-08-2023, 00:11:41,    273,    0.0,   11.4,   0.00,   0.00, 1011.8,    0.1, -999.0
09-08-2023, 00:11:51,    273,    0.0,   11.4,   0.00,   0.00, 1011.8,    0.0, -999.0
09-08-2023, 00:12:01,    274,    0.0,   11.5,   0.00,   0.00, 1011.8,    0.2, -999.0
09-08-2023, 00:12:11,    274,    0.0,   11.5,   0.00,   0.00, 1011.8,    0.2, -999.0
09-08-2023, 00:12:21,    273,    0.0,   11.5,   0.00,   0.00, 1011.8,    0.0, -999.0
09-08-2023, 00:12:31,    274,    0.0,   11.4,   0.00,   0.00, 1011.8,    0.1, -999.0
09-08-2023, 00:12:41,    274,    0.0,   11.4,   0.00,   0.00, 1011.8,    0.0, -999.0
09-08-2023, 00:12:51,    274,    0.0,   11.5,   0.00,   0.00, 1011.8,    0.2, -999.0
09-08-2023, 00:13:01,    273,    0.0,   11.5,   0.00,   0.00, 1011.8,    0.1, -999.0
09-08-2023, 00:13:11,    273,    0.0,   11.5,   0.00,   0.00, 1011.8,    0.1, -999.0
09-08-2023, 00:13:21,    273,    0.0,   11.4,   0.00,   0.00, 1011.8,    0.3, -999.0
09-08-2023, 00:13:31,    274,    0.0,   11.4,   0.00,   0.00, 1011.8,    0.1, -999.0
09-08-2023, 00:13:41,    273,    0.0,   11.5,   0.00,   0.00, 1011.8,    0.2, -999.0
09-08-2023, 00:13:51,    274,    0.0,   11.5,   0.00,   0.00, 1011.8,    0.2, -999.0
09-08-2023, 00:14:01,    274,    0.0,   11.5,   0.00,   0.00, 1011.8,    0.2, -999.0
09-08-2023, 00:14:10,    274,    0.0,   11.4,   0.00,   0.00, 1011.8,    0.1, -999.0
09-08-2023, 00:14:21,    274,    0.0,   11.4,   0.00,   0.00, 1011.9,    0.1, -999.0
09-08-2023, 00:14:31,    273,    0.0,   11.4,   0.00,   0.00, 1011.8,    0.1, -999.0
09-08-2023, 00:14:41,    274,    0.0,   11.4,   0.00,   0.00, 1011.8,    0.1, -999.0
09-08-2023, 00:14:50,    273,    0.0,   11.4,   0.00,   0.00, 1011.8,    0.1, -999.0
09-08-2023, 00:15:01,    273,    0.0,   11.4,   0.00,   0.00, 1011.8,    0.1, -999.0
09-08-2023, 00:15:11,    274,    0.0,   11.4,   0.00,   0.00, 1011.9,    0.2, -999.0
09-08-2023, 00:15:20,    274,    0.0,   11.4,   0.00,   0.00, 1011.8,    0.1, -999.0
09-08-2023, 00:15:30,    274,    0.0,   11.4,   0.00,   0.00, 1011.9,    0.1, -999.0
09-08-2023, 00:15:41,    274,    0.0,   11.4,   0.00,   0.00, 1011.9,    0.1, -999.0
09-08-2023, 00:15:51,    274,    0.0,   11.4,   0.00,   0.00, 1011.9,    0.1, -999.0
09-08-2023, 00:16:00,    273,    0.0,   11.4,   0.00,   0.00, 1011.9,    0.2, -999.0
09-08-2023, 00:16:11,    274,    0.0,   11.3,   0.00,   0.00, 1011.9,    0.3, -999.0
09-08-2023, 00:16:21,    274,    0.0,   11.4,   0.00,   0.00, 1011.9,    0.1, -999.0
09-08-2023, 00:16:30,    274,    0.0,   11.4,   0.00,   0.00, 1011.9,    0.2, -999.0
09-08-2023, 00:16:40,    273,    0.0,   11.4,   0.00,   0.00, 1011.9,    0.2, -999.0
09-08-2023, 00:16:51,    274,    0.0,   11.3,   0.00,   0.00, 1011.9,    0.2, -999.0
09-08-2023, 00:17:00,    274,    0.0,   11.2,   0.00,   0.00, 1011.9,    0.2, -999.0
09-08-2023, 00:17:10,    274,    0.0,   11.3,   0.00,   0.00, 1011.9,    0.1, -999.0
09-08-2023, 00:17:20,    274,    0.0,   11.3,   0.00,   0.00, 1011.9,    0.1, -999.0
09-08-2023, 00:17:31,    274,    0.0,   11.3,   0.00,   0.00, 1011.9,    0.2, -999.0
09-08-2023, 00:17:40,    274,    0.0,   11.3,   0.00,   0.00, 1011.9,    0.1, -999.0
09-08-2023, 00:17:50,    273,    0.0,   11.3,   0.00,   0.00, 1011.9,    0.2, -999.0
09-08-2023, 00:18:00,    274,    0.0,   11.3,   0.00,   0.00, 1011.9,    0.1, -999.0
09-08-2023, 00:18:10,    273,    0.0,   11.2,   0.00,   0.00, 1011.9,    0.2, -999.0
09-08-2023, 00:18:20,    274,    0.0,   11.3,   0.00,   0.00, 1011.9,    0.1, -999.0
09-08-2023, 00:18:30,    273,    0.0,   11.3,   0.00,   0.00, 1011.9,    0.1, -999.0
09-08-2023, 00:18:40,    274,    0.0,   11.3,   0.00,   0.00, 1011.9,    0.1, -999.0
09-08-2023, 00:18:50,    274,    0.0,   11.3,   0.00,   0.00, 1011.9,    0.1, -999.0
09-08-2023, 00:19:00,    274,    0.0,   11.2,   0.00,   0.00, 1011.9,    0.1, -999.0
09-08-2023, 00:19:10,    274,    0.0,   11.3,   0.00,   0.00, 1011.9,    0.2, -999.0
09-08-2023, 00:19:20,    274,    0.0,   11.2,   0.00,   0.00, 1011.9,    0.2, -999.0
09-08-2023, 00:19:30,    274,    0.0,   11.1,   0.00,   0.00, 1011.9,    0.2, -999.0
09-08-2023, 00:19:40,    274,    0.0,   11.2,   0.00,   0.00, 1011.9,    0.1, -999.0
09-08-2023, 00:19:50,    274,    0.0,   11.2,   0.00,   0.00, 1011.9,    0.1, -999.0
09-08-2023, 00:20:00,    274,    0.0,   11.2,   0.00,   0.00, 1012.0,    0.5, -999.0
09-08-2023, 00:20:10,    274,    0.0,   11.4,   0.00,   0.00, 1011.9,    0.1, -999.0
09-08-2023, 00:20:20,    274,    0.0,   11.2,   0.00,   0.00, 1011.9,    0.0, -999.0
09-08-2023, 00:20:30,    274,    0.0,   11.2,   0.00,   0.00, 1011.9,    0.0, -999.0
09-08-2023, 00:20:40,    274,    0.0,   11.2,   0.00,   0.00, 1011.9,    0.0, -999.0
09-08-2023, 00:20:50,    274,    0.0,   11.1,   0.00,   0.00, 1011.9,    0.0, -999.0
09-08-2023, 00:21:00,    274,    0.0,   11.1,   0.00,   0.00, 1011.9,    0.3, -999.0
09-08-2023, 00:21:10,    274,    0.0,   11.2,   0.00,   0.00, 1011.9,    0.3, -999.0
09-08-2023, 00:21:20,    274,    0.0,   11.2,   0.00,   0.00, 1011.9,    0.0, -999.0
09-08-2023, 00:21:30,    273,    0.0,   11.2,   0.00,   0.00, 1011.9,    0.1, -999.0
09-08-2023, 00:21:40,    274,    0.0,   11.2,   0.00,   0.00, 1011.9,    0.1, -999.0
09-08-2023, 00:21:50,    273,    0.0,   11.1,   0.00,   0.00, 1011.9,    0.1, -999.0
09-08-2023, 00:22:00,    273,    0.0,   11.1,   0.00,   0.00, 1011.9,    0.1, -999.0
09-08-2023, 00:22:10,    274,    0.0,   11.1,   0.00,   0.00, 1011.9,    0.1, -999.0
09-08-2023, 00:22:20,    274,    0.0,   11.1,   0.00,   0.00, 1011.9,    0.1, -999.0
09-08-2023, 00:22:30,    274,    0.0,   11.0,   0.00,   0.00, 1011.9,    0.1, -999.0
09-08-2023, 00:22:39,    274,    0.0,   11.1,   0.00,   0.00, 1011.9,    0.2, -999.0
09-08-2023, 00:22:50,    274,    0.0,   11.0,   0.00,   0.00, 1011.9,    0.1, -999.0
09-08-2023, 00:23:00,    274,    0.0,   11.0,   0.00,   0.00, 1011.9,    0.1, -999.0
09-08-2023, 00:23:09,    274,    0.0,   11.0,   0.00,   0.00, 1011.9,    0.1, -999.0
09-08-2023, 00:23:19,    274,    0.0,   11.1,   0.00,   0.00, 1011.9,    0.1, -999.0
09-08-2023, 00:23:30,    274,    0.0,   11.0,   0.00,   0.00, 1011.9,    0.1, -999.0
09-08-2023, 00:23:40,    274,    0.0,   11.0,   0.00,   0.00, 1011.9,    0.1, -999.0
09-08-2023, 00:23:49,    274,    0.0,   11.0,   0.00,   0.00, 1011.9,    0.1, -999.0
09-08-2023, 00:23:59,    274,    0.0,   11.1,   0.00,   0.00, 1011.9,    0.2, -999.0
09-08-2023, 00:24:10,    274,    0.0,   11.1,   0.00,   0.00, 1011.9,    0.2, -999.0
09-08-2023, 00:24:19,    273,    0.0,   11.0,   0.00,   0.00, 1011.9,    0.1, -999.0
09-08-2023, 00:24:29,    274,    0.0,   11.1,   0.00,   0.00, 1011.9,    0.1, -999.0
09-08-2023, 00:24:39,    274,    0.0,   11.0,   0.00,   0.00, 1011.9,    0.2, -999.0
09-08-2023, 00:24:49,    274,    0.0,   11.0,   0.00,   0.00, 1011.9,    0.2, -999.0
09-08-2023, 00:24:59,    274,    0.0,   11.0,   0.00,   0.00, 1011.9,    0.1, -999.0
09-08-2023, 00:25:09,    274,    0.0,   11.0,   0.00,   0.00, 1011.9,    0.1, -999.0
09-08-2023, 00:25:19,    274,    0.0,   11.1,   0.00,   0.00, 1011.9,    0.1, -999.0
09-08-2023, 00:25:29,    274,    0.0,   11.1,   0.00,   0.00, 1011.9,    0.1, -999.0
09-08-2023, 00:25:39,    274,    0.0,   11.1,   0.00,   0.00, 1011.9,    0.1, -999.0
09-08-2023, 00:25:49,    274,    0.0,   11.3,   0.00,   0.00, 1011.9,    0.1, -999.0
09-08-2023, 00:25:59,    274,    0.0,   11.1,   0.00,   0.00, 1011.9,    0.2, -999.0
09-08-2023, 00:26:09,    274,    0.0,   11.1,   0.00,   0.00, 1011.9,    0.1, -999.0
09-08-2023, 00:26:19,    273,    0.0,   11.1,   0.00,   0.00, 1011.9,    0.2, -999.0
09-08-2023, 00:26:29,    273,    0.0,   11.1,   0.00,   0.00, 1011.9,    0.1, -999.0
09-08-2023, 00:26:39,    273,    0.0,   11.1,   0.00,   0.00, 1011.9,    0.1, -999.0
09-08-2023, 00:26:49,    274,    0.0,   11.2,   0.00,   0.00, 1011.9,    0.2, -999.0
09-08-2023, 00:26:59,    274,    0.0,   11.1,   0.00,   0.00, 1011.9,    0.1, -999.0
09-08-2023, 00:27:09,    274,    0.0,   11.1,   0.00,   0.00, 1011.9,    0.1, -999.0
09-08-2023, 00:27:19,    274,    0.0,   11.1,   0.00,   0.00, 1011.9,    0.1, -999.0
09-08-2023, 00:27:29,    274,    0.0,   11.2,   0.00,   0.00, 1011.9,    0.1, -999.0
09-08-2023, 00:27:39,    275,    0.0,   11.2,   0.00,   0.00, 1011.9,    0.2, -999.0
09-08-2023, 00:27:49,    274,    0.0,   11.1,   0.00,   0.00, 1011.9,    0.2, -999.0
09-08-2023, 00:27:59,    274,    0.0,   11.1,   0.00,   0.00, 1012.0,    0.2, -999.0
09-08-2023, 00:28:09,    274,    0.0,   11.1,   0.00,   0.00, 1012.0,    0.1, -999.0
09-08-2023, 00:28:19,    274,    0.0,   11.1,   0.00,   0.00, 1011.9,    0.1, -999.0
09-08-2023, 00:28:29,    274,    0.0,   11.1,   0.00,   0.00, 1012.0,    0.1, -999.0
09-08-2023, 00:28:39,    274,    0.0,   11.1,   0.00,   0.00, 1012.0,    0.1, -999.0
09-08-2023, 00:28:49,    274,    0.0,   11.0,   0.00,   0.00, 1012.0,    0.1, -999.0
09-08-2023, 00:28:59,    273,    0.0,   11.1,   0.00,   0.00, 1011.9,    0.1, -999.0
09-08-2023, 00:29:09,    274,    0.0,   11.1,   0.00,   0.00, 1011.9,    0.0, -999.0
09-08-2023, 00:29:19,    274,    0.0,   11.0,   0.00,   0.00, 1012.0,    0.0, -999.0
09-08-2023, 00:29:29,    274,    0.0,   11.1,   0.00,   0.00, 1012.0,    0.2, -999.0
09-08-2023, 00:29:39,    274,    0.0,   11.1,   0.00,   0.00, 1011.9,    0.1, -999.0
09-08-2023, 00:29:48,    274,    0.0,   11.1,   0.00,   0.00, 1011.9,    0.2, -999.0
09-08-2023, 00:29:59,    273,    0.0,   11.1,   0.00,   0.00, 1011.9,    0.2, -999.0
09-08-2023, 00:30:09,    273,    0.0,   11.1,   0.00,   0.00, 1011.9,    0.1, -999.0
09-08-2023, 00:30:19,    274,    0.0,   11.0,   0.00,   0.00, 1012.0,    0.1, -999.0
09-08-2023, 00:30:28,    274,    0.0,   11.1,   0.00,   0.00, 1012.0,    0.0, -999.0
09-08-2023, 00:30:39,    273,    0.0,   11.0,   0.00,   0.00, 1012.0,    0.1, -999.0
09-08-2023, 00:30:49,    274,    0.0,   11.1,   0.00,   0.00, 1012.0,    0.1, -999.0
09-08-2023, 00:30:58,    274,    0.0,   11.0,   0.00,   0.00, 1012.0,    0.1, -999.0
09-08-2023, 00:31:08,    273,    0.0,   11.1,   0.00,   0.00, 1012.0,    0.1, -999.0
09-08-2023, 00:31:19,    273,    0.0,   11.1,   0.00,   0.00, 1012.0,    0.0, -999.0
09-08-2023, 00:31:28,    274,    0.0,   11.0,   0.00,   0.00, 1012.0,    0.2, -999.0
09-08-2023, 00:31:38,    274,    0.0,   11.1,   0.00,   0.00, 1012.0,    0.1, -999.0
09-08-2023, 00:31:49,    274,    0.0,   11.1,   0.00,   0.00, 1012.0,    0.0, -999.0
09-08-2023, 00:31:58,    274,    0.0,   11.1,   0.00,   0.00, 1012.0,    0.2, -999.0
09-08-2023, 00:32:08,    274,    0.0,   11.1,   0.00,   0.00, 1012.0,    0.0, -999.0
09-08-2023, 00:32:18,    273,    0.0,   11.1,   0.00,   0.00, 1012.0,    0.2, -999.0
09-08-2023, 00:32:29,    274,    0.0,   11.1,   0.00,   0.00, 1012.0,    0.2, -999.0
09-08-2023, 00:32:38,    274,    0.0,   11.1,   0.00,   0.00, 1012.0,    0.2, -999.0
09-08-2023, 00:32:48,    274,    0.0,   11.1,   0.00,   0.00, 1012.0,    0.2, -999.0
09-08-2023, 00:32:58,    274,    0.0,   11.1,   0.00,   0.00, 1012.0,    0.1, -999.0
09-08-2023, 00:33:08,    274,    0.0,   11.1,   0.00,   0.00, 1012.0,    0.1, -999.0
09-08-2023, 00:33:18,    274,    0.0,   11.2,   0.00,   0.00, 1012.0,    0.1, -999.0
09-08-2023, 00:33:28,    274,    0.0,   11.2,   0.00,   0.00, 1012.0,    0.2, -999.0
09-08-2023, 00:33:38,    274,    0.0,   11.2,   0.00,   0.00, 1012.0,    0.1, -999.0
09-08-2023, 00:33:48,    274,    0.0,   11.1,   0.00,   0.00, 1012.0,    0.2, -999.0
09-08-2023, 00:33:58,    274,    0.0,   11.1,   0.00,   0.00, 1012.0,    0.2, -999.0
09-08-2023, 00:34:08,    274,    0.0,   11.2,   0.00,   0.00, 1012.0,    0.1, -999.0
09-08-2023, 00:34:18,    274,    0.0,   11.2,   0.00,   0.00, 1012.0,    0.1, -999.0
09-08-2023, 00:34:28,    274,    0.0,   11.2,   0.00,   0.00, 1012.0,    0.1, -999.0
09-08-2023, 00:34:38,    274,    0.0,   11.1,   0.00,   0.00, 1012.0,    0.2, -999.0
09-08-2023, 00:34:48,    273,    0.0,   11.1,   0.00,   0.00, 1012.0,    0.2, -999.0
09-08-2023, 00:34:58,    273,    0.0,   11.2,   0.00,   0.00, 1012.0,    0.1, -999.0
09-08-2023, 00:35:08,    274,    0.0,   11.1,   0.00,   0.00, 1012.0,    0.1, -999.0
09-08-2023, 00:35:18,    274,    0.0,   11.1,   0.00,   0.00, 1012.0,    0.1, -999.0
09-08-2023, 00:35:28,    274,    0.0,   11.1,   0.00,   0.00, 1012.0,    0.1, -999.0
09-08-2023, 00:35:38,    274,    0.0,   11.1,   0.00,   0.00, 1012.0,    0.2, -999.0
09-08-2023, 00:35:48,    274,    0.0,   11.1,   0.00,   0.00, 1012.0,    0.1, -999.0
09-08-2023, 00:35:58,    274,    0.0,   11.1,   0.00,   0.00, 1012.0,    0.1, -999.0
09-08-2023, 00:36:08,    273,    0.0,   11.1,   0.00,   0.00, 1012.1,    0.1, -999.0
09-08-2023, 00:36:18,    274,    0.0,   11.0,   0.00,   0.00, 1012.0,    0.1, -999.0
09-08-2023, 00:36:28,    274,    0.0,   11.0,   0.00,   0.00, 1012.0,    0.1, -999.0
09-08-2023, 00:36:38,    274,    0.0,   11.0,   0.00,   0.00, 1012.0,    0.1, -999.0
09-08-2023, 00:36:48,    274,    0.0,   11.0,   0.00,   0.00, 1012.0,    0.1, -999.0
09-08-2023, 00:36:58,    274,    0.0,   11.1,   0.00,   0.00, 1012.0,    0.1, -999.0
09-08-2023, 00:37:08,    274,    0.0,   11.1,   0.00,   0.00, 1012.0,    0.1, -999.0
09-08-2023, 00:37:18,    274,    0.0,   11.0,   0.00,   0.00, 1012.0,    0.2, -999.0
09-08-2023, 00:37:28,    274,    0.0,   11.1,   0.00,   0.00, 1012.0,    0.1, -999.0
09-08-2023, 00:37:37,    273,    0.0,   11.1,   0.00,   0.00, 1012.0,    0.0, -999.0
09-08-2023, 00:37:48,    273,    0.0,   11.2,   0.00,   0.00, 1012.0,    0.1, -999.0
09-08-2023, 00:37:58,    274,    0.0,   11.0,   0.00,   0.00, 1012.0,    0.1, -999.0
09-08-2023, 00:38:07,    273,    0.0,   11.0,   0.00,   0.00, 1012.0,    0.1, -999.0
09-08-2023, 00:38:17,    274,    0.0,   11.1,   0.00,   0.00, 1012.1,    0.0, -999.0
09-08-2023, 00:38:28,    274,    0.0,   11.1,   0.00,   0.00, 1012.0,    0.1, -999.0
09-08-2023, 00:38:38,    274,    0.0,   11.1,   0.00,   0.00, 1012.0,    0.1, -999.0
09-08-2023, 00:38:47,    274,    0.0,   11.1,   0.00,   0.00, 1012.0,    0.1, -999.0
09-08-2023, 00:38:57,    274,    0.0,   11.0,   0.00,   0.00, 1012.1,    0.1, -999.0
09-08-2023, 00:39:08,    274,    0.0,   11.0,   0.00,   0.00, 1012.0,    0.1, -999.0
09-08-2023, 00:39:17,    273,    0.0,   11.0,   0.00,   0.00, 1012.0,    0.1, -999.0
09-08-2023, 00:39:27,    273,    0.0,   11.0,   0.00,   0.00, 1012.0,    0.2, -999.0
09-08-2023, 00:39:37,    274,    0.0,   10.9,   0.00,   0.00, 1012.0,    0.1, -999.0
09-08-2023, 00:39:47,    274,    0.0,   10.9,   0.00,   0.00, 1012.0,    0.1, -999.0
09-08-2023, 00:39:57,    274,    0.0,   10.9,   0.00,   0.00, 1012.0,    0.2, -999.0
09-08-2023, 00:40:07,    274,    0.0,   10.9,   0.00,   0.00, 1012.0,    0.1, -999.0
09-08-2023, 00:40:17,    274,    0.0,   10.9,   0.00,   0.00, 1012.1,    0.1, -999.0
09-08-2023, 00:40:27,    274,    0.0,   10.8,   0.00,   0.00, 1012.1,    0.1, -999.0
09-08-2023, 00:40:37,    274,    0.0,   10.9,   0.00,   0.00, 1012.1,    0.2, -999.0
09-08-2023, 00:40:47,    274,    0.0,   10.9,   0.00,   0.00, 1012.0,    0.0, -999.0
09-08-2023, 00:40:57,    274,    0.0,   10.8,   0.00,   0.00, 1012.0,    0.2, -999.0
09-08-2023, 00:41:07,    274,    0.0,   10.9,   0.00,   0.00, 1012.0,    0.2, -999.0
09-08-2023, 00:41:17,    274,    0.0,   10.8,   0.00,   0.00, 1012.0,    0.2, -999.0
09-08-2023, 00:41:27,    274,    0.0,   10.8,   0.00,   0.00, 1012.0,    0.1, -999.0
09-08-2023, 00:41:37,    274,    0.0,   10.9,   0.00,   0.00, 1012.0,    0.2, -999.0
09-08-2023, 00:41:47,    274,    0.0,   10.9,   0.00,   0.00, 1012.0,    0.1, -999.0
09-08-2023, 00:41:57,    274,    0.0,   10.9,   0.00,   0.00, 1012.0,    0.1, -999.0
09-08-2023, 00:42:07,    274,    0.0,   10.9,   0.00,   0.00, 1012.0,    0.1, -999.0
09-08-2023, 00:42:17,    274,    0.0,   10.9,   0.00,   0.00, 1012.0,    0.1, -999.0
09-08-2023, 00:42:27,    274,    0.0,   11.0,   0.00,   0.00, 1012.0,    0.2, -999.0
09-08-2023, 00:42:37,    274,    0.0,   10.9,   0.00,   0.00, 1012.0,    0.1, -999.0
09-08-2023, 00:42:47,    273,    0.0,   10.9,   0.00,   0.00, 1012.0,    0.0, -999.0
09-08-2023, 00:42:57,    274,    0.0,   10.9,   0.00,   0.00, 1012.0,    0.1, -999.0
09-08-2023, 00:43:07,    274,    0.0,   10.8,   0.00,   0.00, 1012.0,    0.2, -999.0
09-08-2023, 00:43:17,    274,    0.0,   10.9,   0.00,   0.00, 1012.0,    0.0, -999.0
09-08-2023, 00:43:27,    274,    0.0,   10.9,   0.00,   0.00, 1012.0,    0.1, -999.0
09-08-2023, 00:43:37,    274,    0.0,   10.9,   0.00,   0.00, 1012.0,    0.1, -999.0
09-08-2023, 00:43:47,    274,    0.0,   10.9,   0.00,   0.00, 1012.0,    0.0, -999.0
09-08-2023, 00:43:57,    274,    0.0,   11.0,   0.00,   0.00, 1012.0,    0.2, -999.0
09-08-2023, 00:44:07,    274,    0.0,   11.0,   0.00,   0.00, 1012.0,    0.1, -999.0
09-08-2023, 00:44:17,    274,    0.0,   11.0,   0.00,   0.00, 1012.0,    0.0, -999.0
09-08-2023, 00:44:27,    274,    0.0,   11.0,   0.00,   0.00, 1012.0,    0.1, -999.0
09-08-2023, 00:44:37,    274,    0.0,   11.0,   0.00,   0.00, 1012.0,    0.1, -999.0
09-08-2023, 00:44:47,    274,    0.0,   11.0,   0.00,   0.00, 1012.0,    0.1, -999.0
09-08-2023, 00:44:57,    274,    0.0,   11.0,   0.00,   0.00, 1012.0,    0.2, -999.0
09-08-2023, 00:45:07,    273,    0.0,   11.0,   0.00,   0.00, 1012.0,    0.1, -999.0
09-08-2023, 00:45:17,    274,    0.0,   11.0,   0.00,   0.00, 1012.0,    0.2, -999.0
09-08-2023, 00:45:26,    273,    0.0,   10.9,   0.00,   0.00, 1012.0,    0.1, -999.0
09-08-2023, 00:45:36,    274,    0.0,   10.9,   0.00,   0.00, 1012.0,    0.1, -999.0
09-08-2023, 00:45:47,    274,    0.0,   11.0,   0.00,   0.00, 1012.0,    0.2, -999.0
09-08-2023, 00:45:56,    274,    0.0,   11.1,   0.00,   0.00, 1012.1,    0.2, -999.0
09-08-2023, 00:46:06,    273,    0.0,   11.1,   0.00,   0.00, 1012.0,    0.1, -999.0
09-08-2023, 00:46:17,    274,    0.0,   11.0,   0.00,   0.00, 1012.1,    0.2, -999.0
09-08-2023, 00:46:26,    274,    0.0,   11.0,   0.00,   0.00, 1012.1,    0.1, -999.0
09-08-2023, 00:46:36,    273,    0.0,   11.0,   0.00,   0.00, 1012.1,    0.3, -999.0
09-08-2023, 00:46:46,    274,    0.0,   11.0,   0.00,   0.00, 1012.1,    0.2, -999.0